sat.trackr.live / text

‹ back to catalog

STARLINK-11483 [DTC]

NORAD 62223 · 2024-231F

PAYLOAD ACTIVE UNKNOWN

§ Identity

Operator
Country
US
Launch date
2024-12-05
Launch site
AFWTR
Launch vehicle
Mass (kg)
RCS (m²)

Purposes: comms

External: N2YO · Heavens-Above · Gunter

§ Orbital elements

Epoch: 2026-09-21T06:31:40.045728Z

Period
91.74 min
Inclination
53.1575°
Eccentricity
0.0001225
Mean motion
15.69719483 rev/d
Perigee alt
358.9 km
Apogee alt
360.5 km
Semi-major
6,737.8 km
B*
8.5435e-4
RAAN
216.8414°
Arg perigee
79.3688°
Mean anomaly
280.7468°
Rev number
10,413

§ Raw data

STARLINK-11483 [DTC]1 62223U 24231F   26264.27199127  .00104265  00000+0  85435-3 0  99902 62223  53.1575 216.8414 0001225  79.3688 280.7468 15.69719483104137

JSON: /api/v1/satellites/62223 · /tle

For live sub-satellite position, see the globe view (requires WebGL).

§ Visibility from observer

Set your observer location to see the next 7 days of passes ≥ 10°. The values pass through the URL so the page stays shareable.

No JS? Fill the form by hand. The geolocation button needs JavaScript.